[[{"header":{"parameterUnit":"m.s-1","parameterCategory":1,"la1":30.2991,"la2":30.254,"lo1":-89.0895,"lo2":-89.0444,"dy":0.0017,"dx":0.0017,"nx":28,"ny":28,"refTime":"2023-08-23T03:00:00:Z","depth":0,"parameterNumber":2,"parameterNumberName":"U-component_of_WINDS"},"data":[0,0,0,0,0,0,0,0,0,0,0,0,0,0,0,0,0,0,0,0,0,0,0,0,0,0,0,0,0,0,0,0,0,0,0,0,0,0,0,0,0,0,0,0,0,0,0,0,0,0,0,0,0,0,0,0,0,0,1.4535,1.4535,0,1.4584,1.4585,1.4585,1.4624,1.4625,1.4625,1.4626,1.4672,1.4673,1.4674,0,0,0,0,0,0,0,0,0,0,0,0,0,1.447,1.4471,1.4535,1.4535,1.4536,1.4584,1.4585,1.4585,1.4624,1.4625,1.4625,1.4626,1.4672,1.4673,1.4674,0,0,0,0,0,0,0,0,0,0,0,0,0,1.4506,1.4471,1.4535,1.4561,1.4564,1.4584,1.4585,1.4586,1.4624,1.4625,1.4625,1.4626,1.4672,1.4673,1.4674,1.467,0,0,1.4678,1.4679,0,0,0,0,0,0,0,0,1.4504,1.4509,1.4557,1.456,1.4563,1.4599,1.4579,1.4614,1.4624,1.4601,1.4626,1.4626,1.4647,1.4651,1.4658,1.4673,1.4675,1.4678,1.4679,1.468,1.468,0,0,0,0,0,0,0,1.4502,1.4507,1.4554,1.4557,1.4561,1.4569,1.4575,1.4586,1.462,1.4603,1.4606,1.4612,1.4649,1.4657,1.466,1.4675,1.4678,1.468,1.468,1.4681,1.4687,1.4686,0,0,0,0,0,0,1.4496,1.4504,1.4553,1.4556,1.4535,1.457,1.4577,1.4587,1.462,1.4626,1.4611,1.4614,1.4655,1.4658,1.4662,1.4658,1.468,1.4681,1.4682,1.4688,1.4687,1.4686,0,0,0,0,0,0,1.4494,1.45,1.4551,1.4531,1.4538,1.4571,1.4581,1.4587,1.4596,1.4626,1.4632,1.4614,1.4655,1.466,1.4668,1.466,1.4682,1.4683,1.4688,1.4687,1.4687,1.4651,0,0,0,0,0,0,1.4492,1.4499,1.4499,1.4531,1.4539,1.4557,1.4581,1.4588,1.4598,1.4601,1.463,1.4635,1.4656,1.4666,1.4669,1.4662,1.4684,1.4689,1.4688,1.4687,1.4653,1.4649,1.4646,0,0,0,0,0,1.449,1.4486,1.4498,1.4504,1.454,1.4557,1.4561,1.4586,1.4597,1.4597,1.4616,1.4634,1.4661,1.4666,1.467,1.4664,1.469,1.4688,1.4687,1.4655,1.465,1.4646,0,0,0,0,0,0,1.4451,1.4491,1.4505,1.4512,1.4531,1.4563,1.4563,1.4581,1.4596,1.4598,1.4627,1.4634,1.4638,1.4652,1.4657,1.4661,1.4677,1.4677,1.4651,1.4647,1.4643,1.4639,1.4685,0,0,0,0,0,1.4444,1.4456,1.4489,1.4492,1.4501,1.453,1.4539,1.4557,1.4577,1.4584,1.4605,1.4622,1.4635,1.4642,1.4655,1.4656,1.4661,1.4653,1.4649,1.4646,1.4645,1.4644,1.4641,1.4682,1.4682,1.4682,0,0,1.4428,1.4451,1.4457,1.4485,1.4502,1.4512,1.4537,1.4547,1.4554,1.4586,1.4594,1.461,1.4631,1.4635,1.4638,1.4647,1.4635,1.4645,1.4642,1.4642,1.4643,1.4639,1.4635,1.4681,1.4681,1.4681,0,0,1.4404,1.4424,1.4428,1.4444,1.4469,1.4489,1.449,1.452,1.4531,1.4541,1.4565,1.4573,1.4594,1.4608,1.4618,1.4599,1.4615,1.4602,1.4582,1.4581,1.4578,1.4575,1.4566,1.4563,1.4601,1.4601,1.4601,0,1.4381,1.4398,1.4427,1.4435,1.4446,1.4477,1.448,1.4494,1.4522,1.4528,1.4538,1.4564,1.4581,1.4588,1.4583,1.4591,1.4591,1.4598,1.4576,1.4574,1.4572,1.4564,1.4561,1.4599,1.4599,1.4599,1.4599,0,1.4367,1.4379,1.4379,1.4406,1.4417,1.4423,1.4451,1.4458,1.4475,1.4493,1.4501,1.4523,1.454,1.4543,1.4559,1.4552,1.4557,1.4571,1.4588,1.4565,1.4558,1.4556,1.4596,1.4597,1.4597,1.4598,0,0,1.432,1.4363,1.4362,1.4374,1.4404,1.4413,1.4419,1.4437,1.4442,1.446,1.4465,1.4482,1.4495,1.4506,1.4524,1.4524,1.4505,1.4539,1.454,1.453,1.4496,1.4483,1.4479,1.4517,1.4517,1.4516,1.4493,0,1.4299,1.4314,1.434,1.4345,1.4355,1.4384,1.4389,1.4407,1.4424,1.4434,1.4452,1.4463,1.4481,1.4488,1.4489,1.4507,1.4498,1.451,1.452,1.452,1.4511,1.4476,1.4463,1.444,1.4491,1.4491,1.449,0,1.4277,1.4294,1.4301,1.4329,1.4334,1.4339,1.4356,1.4366,1.4387,1.4399,1.4411,1.4431,1.4437,1.4454,1.4462,1.4469,1.4475,1.4485,1.4484,1.4485,1.4502,1.4473,1.4434,1.443,1.4487,1.4487,1.4487,0,1.4239,1.4264,1.4271,1.428,1.4314,1.4316,1.433,1.4352,1.436,1.4376,1.4381,1.4397,1.4405,1.4415,1.4438,1.4449,1.4443,1.4462,1.4452,1.4451,1.4447,1.4447,1.4406,1.4454,1.4455,1.4455,1.4455,0,1.4212,1.4215,1.4254,1.4258,1.4261,1.429,1.4292,1.4308,1.4327,1.4333,1.4359,1.4364,1.4395,1.4403,1.4421,1.4424,1.4428,1.4437,1.4441,1.4433,1.4432,1.4436,1.4437,1.4454,1.4454,1.4454,1.4454,0,1.417,1.4197,1.4206,1.4237,1.4245,1.4246,1.4272,1.4276,1.4295,1.4302,1.4305,1.4334,1.4345,1.437,1.4387,1.4399,1.4396,1.4406,1.4389,1.4392,1.4379,1.4379,1.4338,1.4333,1.4386,1.4385,1.4385,0,1.415,1.4153,1.4185,1.4191,1.4205,1.4215,1.4224,1.4253,1.4261,1.4285,1.4285,1.4298,1.431,1.4326,1.4347,1.436,1.4369,1.4354,1.4371,1.4362,1.4366,1.4364,1.4364,1.4349,1.4348,1.4348,1.4347,0,1.4111,1.4124,1.4137,1.4155,1.4165,1.418,1.4196,1.42,1.4232,1.4239,1.4251,1.4261,1.4279,1.429,1.4307,1.4319,1.4337,1.4342,1.434,1.433,1.432,1.4323,1.4377,1.4342,1.4343,1.4343,1.4343,1.4343,1.4078,1.4081,1.4104,1.4117,1.4133,1.4147,1.4152,1.4171,1.4182,1.42,1.4216,1.4226,1.4245,1.4269,1.428,1.4287,1.4297,1.4294,1.4293,1.4291,1.4287,1.4321,1.429,1.4291,1.4291,1.4291,1.4291,0,1.4039,1.4055,1.4067,1.4089,1.4099,1.4118,1.4136,1.4142,1.4151,1.4168,1.418,1.4192,1.4204,1.4227,1.424,1.4241,1.4249,1.4243,1.4242,1.4244,1.4279,1.4278,1.4236,1.4236,1.4236,1.4236,1.4236,1.4236,1.4019,1.4025,1.404,1.4053,1.4069,1.408,1.4089,1.4101,1.4115,1.4128,1.4139,1.4154,1.4173,1.4187,1.4198,1.4204,1.4207,1.4197,1.4206,1.4237,1.4242,1.4247,1.4247,1.4198,1.4198,1.417,1.417,1.417]},{"header":{"parameterUnit":"m.s-1","parameterCategory":1,"la1":30.2991,"la2":30.254,"lo1":-89.0895,"lo2":-89.0444,"dy":0.0017,"dx":0.0017,"nx":28,"ny":28,"refTime":"2023-08-23T03:00:00:Z","depth":0,"parameterNumber":3,"parameterNumberName":"V-component_of_WINDS"},"data":[0,0,0,0,0,0,0,0,0,0,0,0,0,0,0,0,0,0,0,0,0,0,0,0,0,0,0,0,0,0,0,0,0,0,0,0,0,0,0,0,0,0,0,0,0,0,0,0,0,0,0,0,0,0,0,0,0,0,3.4608,3.4608,0,3.4576,3.4576,3.4575,3.4533,3.4532,3.4532,3.4531,3.4497,3.4497,3.4497,0,0,0,0,0,0,0,0,0,0,0,0,0,3.4632,3.4632,3.4608,3.4608,3.4607,3.4576,3.4576,3.4575,3.4533,3.4532,3.4532,3.4531,3.4497,3.4497,3.4497,0,0,0,0,0,0,0,0,0,0,0,0,0,3.4613,3.4632,3.4608,3.4583,3.458,3.4576,3.4576,3.4575,3.4533,3.4532,3.4531,3.453,3.4498,3.4497,3.4497,3.4515,0,0,3.4496,3.4495,0,0,0,0,0,0,0,0,3.4614,3.4612,3.4587,3.4584,3.4581,3.4558,3.4572,3.4555,3.4534,3.4551,3.4531,3.453,3.4518,3.4516,3.4512,3.4514,3.4512,3.4496,3.4495,3.4495,3.4495,0,0,0,0,0,0,0,3.4616,3.4613,3.4595,3.4586,3.4583,3.4573,3.4569,3.4568,3.4541,3.4549,3.4546,3.4543,3.4516,3.4513,3.4511,3.4512,3.4496,3.4495,3.4495,3.4495,3.4527,3.4528,0,0,0,0,0,0,3.4621,3.4615,3.4596,3.4594,3.4596,3.4573,3.4569,3.4566,3.4541,3.4536,3.4544,3.4541,3.4514,3.4512,3.451,3.453,3.4495,3.4495,3.4495,3.4526,3.4528,3.4529,0,0,0,0,0,0,3.4621,3.462,3.4598,3.4604,3.46,3.4574,3.4571,3.4566,3.4562,3.4537,3.4531,3.4545,3.4513,3.451,3.4514,3.4528,3.4495,3.4494,3.4525,3.4527,3.4528,3.4571,0,0,0,0,0,0,3.4622,3.462,3.4627,3.4604,3.46,3.4603,3.4572,3.4566,3.4562,3.4558,3.4536,3.4532,3.4512,3.4515,3.4514,3.4527,3.4494,3.4524,3.4526,3.4528,3.4568,3.4574,3.4579,0,0,0,0,0,3.4623,3.464,3.4627,3.4625,3.4608,3.4604,3.4601,3.4579,3.4563,3.457,3.4554,3.4533,3.4527,3.4516,3.4514,3.4528,3.4523,3.4525,3.4527,3.4566,3.4573,3.4579,0,0,0,0,0,0,3.4664,3.4636,3.4622,3.4632,3.4621,3.4597,3.4604,3.4586,3.4579,3.4576,3.4547,3.4543,3.455,3.4539,3.4527,3.4545,3.4522,3.4524,3.4551,3.4558,3.4563,3.4566,3.4494,0,0,0,0,0,3.4674,3.4674,3.4649,3.466,3.4655,3.4631,3.4628,3.4612,3.4599,3.4594,3.4578,3.4566,3.4561,3.4559,3.4553,3.4566,3.4561,3.4575,3.458,3.4585,3.4587,3.4593,3.4599,3.4537,3.4537,3.4537,0,0,3.4695,3.468,3.4681,3.4668,3.4657,3.4657,3.4627,3.4628,3.4628,3.4594,3.4597,3.4585,3.4569,3.4578,3.4581,3.4569,3.4603,3.4588,3.4591,3.4591,3.4597,3.4603,3.4608,3.4538,3.4538,3.4538,0,0,3.4733,3.4721,3.4729,3.472,3.4704,3.4688,3.469,3.4669,3.466,3.4663,3.4638,3.4637,3.463,3.462,3.4614,3.465,3.4631,3.4649,3.4676,3.4683,3.4688,3.4693,3.4706,3.4711,3.4651,3.4651,3.4651,0,3.4761,3.476,3.4736,3.4739,3.4734,3.4704,3.4712,3.4703,3.4687,3.4684,3.4671,3.4662,3.465,3.4656,3.4665,3.4661,3.4663,3.4651,3.469,3.4694,3.4697,3.4709,3.4714,3.4654,3.4654,3.4653,3.4653,0,3.4795,3.4795,3.4803,3.4789,3.4785,3.479,3.4767,3.4766,3.475,3.4735,3.4739,3.4723,3.4714,3.4715,3.4699,3.4719,3.4712,3.4695,3.4671,3.4706,3.4717,3.4721,3.4657,3.4656,3.4656,3.4655,0,0,3.4857,3.483,3.4833,3.4827,3.4808,3.4807,3.4812,3.4804,3.4803,3.4793,3.4796,3.4792,3.4776,3.4769,3.4752,3.4758,3.4788,3.474,3.4739,3.475,3.481,3.4824,3.483,3.4775,3.4776,3.4777,3.4812,0,3.4891,3.4898,3.4876,3.4888,3.4888,3.486,3.4863,3.4852,3.4839,3.4837,3.4822,3.4819,3.4798,3.4794,3.4799,3.4784,3.48,3.4781,3.4778,3.4778,3.4783,3.4835,3.4849,3.4883,3.4816,3.4817,3.4817,0,3.4932,3.4925,3.4937,3.4918,3.4917,3.4921,3.4913,3.4911,3.4898,3.4888,3.4882,3.4862,3.4865,3.4843,3.4847,3.4834,3.4832,3.4824,3.4825,3.4824,3.48,3.4836,3.4893,3.4898,3.4824,3.4823,3.4823,0,3.4977,3.497,3.4976,3.4972,3.495,3.4953,3.4945,3.4931,3.4928,3.492,3.4918,3.491,3.4907,3.4901,3.4881,3.4866,3.4887,3.4863,3.4879,3.488,3.4885,3.4885,3.4943,3.4883,3.4883,3.4883,3.4883,0,3.5018,3.5026,3.4996,3.5,3.5009,3.4985,3.4994,3.4982,3.497,3.4971,3.4947,3.4948,3.4921,3.4919,3.4903,3.4909,3.4907,3.49,3.4895,3.4902,3.4903,3.49,3.4897,3.4884,3.4884,3.4884,3.4883,0,3.5069,3.5049,3.5054,3.5034,3.5029,3.5036,3.5018,3.5021,3.5007,3.5009,3.5008,3.4985,3.4982,3.4961,3.4954,3.4943,3.4955,3.4946,3.496,3.4957,3.4974,3.4973,3.5032,3.5039,3.4975,3.4976,3.4976,0,3.5096,3.5102,3.5082,3.5081,3.5074,3.5073,3.507,3.5047,3.5044,3.5031,3.5035,3.5031,3.5026,3.5023,3.5006,3.5,3.4991,3.5012,3.4989,3.4996,3.4991,3.4991,3.4992,3.5017,3.5017,3.5018,3.5019,0,3.5146,3.5137,3.5133,3.5127,3.5124,3.5118,3.511,3.5111,3.5085,3.5084,3.5081,3.5077,3.507,3.5066,3.5058,3.5048,3.5029,3.5026,3.5029,3.5036,3.5044,3.504,3.4973,3.5024,3.5024,3.5023,3.5023,3.5023,3.5186,3.5191,3.5178,3.5175,3.5167,3.516,3.5162,3.5149,3.5146,3.5139,3.5125,3.5125,3.5112,3.5099,3.5092,3.5091,3.508,3.5084,3.5086,3.5087,3.5091,3.5044,3.5089,3.5089,3.5089,3.5089,3.5088,0,3.5236,3.5227,3.5224,3.5215,3.5213,3.5196,3.5186,3.5186,3.5186,3.5176,3.5172,3.517,3.5166,3.5149,3.5143,3.5146,3.5137,3.5145,3.5145,3.5143,3.5101,3.5099,3.5153,3.5153,3.5153,3.5153,3.5153,3.5153,3.5261,3.5268,3.5257,3.5259,3.525,3.5249,3.5246,3.524,3.5232,3.523,3.5227,3.5217,3.5204,3.5198,3.5194,3.5189,3.5188,3.5199,3.5191,3.5152,3.5146,3.514,3.5138,3.5199,3.5199,3.5233,3.5234,3.5234]}]]